User: anonymous   Login
Location: Sternwarte-Kraichtal
(49.1689°N, 8.6996°E)
Time: 15:58:17
(UTC+02:00)
Language:

BlueWalker 3 - Orbit

View from above orbital plane
View from above orbital plane
View from above satellite
View from above satellite

Ground track
Ground track

The orbit data is extracted from the following two-line orbital elements,

1 53807U 22111AL  24116.20384913  .00010576  00000-0  42732-3 0  9994
2 53807  53.2373  77.6365 0007369 305.5372  54.4940 15.25289104 90149
Epoch (UTC): 25 April 2024 04:53:32
Eccentricity: 0.0007369
inclination: 53.2373°
perigee height: 485 km
apogee height: 495 km
right ascension of ascending node: 77.6365°
argument of perigee: 305.5372°
revolutions per day: 15.25289104
mean anomaly at epoch: 54.4940°
orbit number at epoch: 9014

The dashed part of the orbit path shows where the satellite is in the earth's shadow,  

DLR